This is the latest recevied weather packets stored in our database for station/object 4S6DRJ-13. If no packets are shown the sender has not sent any weather packets the latest 10 day(s).
| Time | Temp. | Humidity | Pressure | Rain* | Wind** | Luminosity | Snow |
|---|---|---|---|---|---|---|---|
| 1787813881 | 30° C | 76% | 1009.6 hPa | 0 mm | 1.79 m/s, 271° | 606 W/m² | - |
| 1787813819 | 30° C | 76% | 1009.4 hPa | 0 mm | 0.89 m/s, 325° | 536 W/m² | - |
| 1787813759 | 30° C | 75% | 1009.6 hPa | 0 mm | 1.79 m/s, 205° | 473 W/m² | - |
| 1787813698 | 30° C | 76% | 1009.4 hPa | 0 mm | 0.45 m/s, 166° | 385 W/m² | - |
| 1787813639 | 30° C | 75% | 1009.7 hPa | 0 mm | 1.79 m/s, 215° | 434 W/m² | - |
| 1787813575 | 30° C | 75% | 1009.6 hPa | 0 mm | 1.79 m/s, 260° | 482 W/m² | - |
| 1787813515 | 30° C | 75% | 1009.7 hPa | 0 mm | 0.45 m/s, 95° | 691 W/m² | - |
| 1787813454 | 30° C | 75% | 1009.7 hPa | 0 mm | 1.79 m/s, 243° | 504 W/m² | - |
| 1787813393 | 30° C | 76% | 1009.7 hPa | 0 mm | 0.45 m/s, 232° | 484 W/m² | - |
| 1787813332 | 30° C | 76% | 1009.8 hPa | 0 mm | 1.79 m/s, 2° | 745 W/m² | - |
| 1787813270 | 30° C | 77% | 1009.8 hPa | 0 mm | 0.45 m/s, 139° | 714 W/m² | - |
| 1787813210 | 29.44° C | 77% | 1009.8 hPa | 0 mm | 1.79 m/s, 214° | 626 W/m² | - |
| 1787813149 | 29.44° C | 77% | 1009.8 hPa | 0 mm | 1.34 m/s, 254° | 673 W/m² | - |
| 1787813088 | 29.44° C | 77% | 1009.8 hPa | 0 mm | 0.89 m/s, 327° | 589 W/m² | - |
| 1787813027 | 29.44° C | 76% | 1009.8 hPa | 0 mm | 1.34 m/s, 181° | 569 W/m² | - |
| 1787812966 | 29.44° C | 76% | 1009.8 hPa | 0 mm | 1.79 m/s, 284° | 626 W/m² | - |
| 1787812905 | 29.44° C | 76% | 1009.8 hPa | 0 mm | 0.89 m/s, 223° | 608 W/m² | - |
| 1787812844 | 29.44° C | 77% | 1009.8 hPa | 0 mm | 2.24 m/s, 277° | 585 W/m² | - |
| 1787812783 | 29.44° C | 77% | 1010 hPa | 0 mm | 1.34 m/s, 205° | 560 W/m² | - |
| 1787812722 | 29.44° C | 77% | 1010 hPa | 0 mm | 1.34 m/s, 359° | 554 W/m² | - |
| 1787812661 | 29.44° C | 77% | 1010.1 hPa | 0 mm | 2.24 m/s, 322° | 640 W/m² | - |
| 1787812599 | 29.44° C | 77% | 1010.1 hPa | 0 mm | 2.68 m/s, 332° | 535 W/m² | - |
| 1787812538 | 29.44° C | 77% | 1010.1 hPa | 0 mm | 1.34 m/s, 300° | 621 W/m² | - |
| 1787812478 | 29.44° C | 76% | 1010.1 hPa | 0 mm | 1.79 m/s, 232° | 563 W/m² | - |
| 1787812417 | 29.44° C | 76% | 1010.3 hPa | 0 mm | 0.89 m/s, 321° | 420 W/m² | - |
* Rain latest hour (hover to see other rain measurements)
** Current wind speed in m/s (hover to see current wind gust speed)